{"data":{"norad_id":51149,"intl_designator":"2022-005AX","name":"STARLINK-3360","alt_names":[],"object_type":"PAYLOAD","status":"ACTIVE","operator":null,"country":"US","launch_date":"2022-01-19","launch_site_code":"AFETR","launch_vehicle":null,"mission":null,"orbit_class":"UNKNOWN","rcs_meters":null,"size_class":null,"mass_kg":null,"dimensions":null,"purposes":["comms"],"wikipedia_slug":null,"has_3d_model":false,"image_url":null,"decayed_at":null,"tle_current":{"epoch":"2026-09-20T04:29:33.700704Z","epoch_age_seconds":75241,"freshness":"FRESH","line1":"1 51149U 22005AX  26263.18719561  .00000089  00000+0  13782-4 0  9997","line2":"2 51149  53.1591 138.8234 0001317  89.8903 270.2250 15.34387045258197","mean_motion":15.34387045,"eccentricity":0.0001317,"inclination_deg":53.1591,"raan_deg":138.8234,"arg_perigee_deg":89.8903,"mean_anomaly_deg":270.225,"bstar":1.3782e-5,"rev_number":25819,"period_min":93.848550448365,"perigee_km":461.84080173739,"apogee_km":463.64268919894,"semimajor_km":6840.8787454682,"source":"CELESTRAK","updated_at":"2026-09-20T09:00:39.593116Z"}}}